Change the Weather History Date:

Sunday, September 1, 2013

  Actual Average Record
Temperature  
Mean Temperature 79 °F 72 °F  
Max Temperature 91 °F 82 °F 104 °F (2011)
Min Temperature 67 °F 62 °F 41 °F (1949)
Degree Days  
Heating Degree Days 0 0  
Month to date heating degree days 0 0  
Since 1 July heating degree days 6 5  
Cooling Degree Days 14 7  
Month to date cooling degree days 14 7  
Year to date cooling degree days 1020 960  
Growing Degree Days 29 (Base 50)    
Moisture  
Dew Point 67 °F    
Average Humidity 69    
Maximum Humidity 100    
Minimum Humidity 38    
Precipitation  
Precipitation 0.00 in 0.11 in 1.97 in (1931)
Month to date precipitation 0.00 0.11  
Year to date precipitation 28.10 25.86  
Sea Level Pressure  
Sea Level Pressure 29.81 in    
Wind  
Wind Speed 7 mph (NW)    
Max Wind Speed 16 mph    
Max Gust Speed 21 mph    
Visibility 6 miles    
Events Fog    
T = Trace of Precipitation, MM = Missing Value Source: NWS Daily Summary

Daily Weather History Graph

Daily Weather History Graph

Search for Another Location

Airport or City:

Trip Planner

Search our weather history database for the weather conditions in past years. The results will help you decide how hot, cold, wet, or windy it might be!

Date:

Astronomy

Sep. 01, 2013 Rise Set
Actual Time 6:32 AM CDT 7:35 PM CDT
Civil Twilight 6:05 AM CDT 8:03 PM CDT
Nautical Twilight 5:32 AM CDT 8:36 PM CDT
Astronomical Twilight 4:57 AM CDT 9:10 PM CDT
Moon 2:55 AM CDT (9/1) 5:13 PM CDT (9/1)
Length of Visible Light 13h 58m
Length of Day
13h 02m
Waning Crescent, 13% of the Moon is Illuminated
Sep 1
Waning Crescent
Sep 5
New
Sep 12
First Quarter
Sep 19
Full
Sep 26
Last Quarter

Hourly Weather History & Observations

Time (CDT) Temp. Heat Index Dew Point Humidity Pressure Visibility Wind Dir Wind Speed Gust Speed Precip Events Conditions
12:54 AM 73.9 °F - 70.0 °F 87% 29.79 in 9.0 mi Calm Calm - N/A   Clear
1:54 AM 73.0 °F - 70.0 °F 90% 29.79 in 8.0 mi Calm Calm - N/A   Clear
2:54 AM 70.0 °F - 66.9 °F 90% 29.79 in 7.0 mi NE 3.5 mph - N/A   Clear
3:54 AM 70.0 °F - 68.0 °F 93% 29.78 in 6.0 mi SSW 3.5 mph - N/A   Clear
4:40 AM 69.8 °F - 68.0 °F 94% 29.81 in 2.0 mi Calm Calm - N/A   Clear
4:51 AM 69.8 °F - 69.8 °F 100% 29.81 in 4.0 mi Calm Calm - N/A   Clear
4:54 AM 70.0 °F - 68.0 °F 93% 29.78 in 4.0 mi Calm Calm - N/A   Clear
5:01 AM 69.8 °F - 68.0 °F 94% 29.81 in 1.5 mi Calm Calm - N/A   Partly Cloudy
5:03 AM 69.8 °F - 68.0 °F 94% 29.81 in 0.8 mi Calm Calm - N/A   Mist
5:18 AM 68.0 °F - 66.2 °F 94% 29.80 in 0.5 mi Calm Calm - N/A Fog Fog
5:27 AM 69.8 °F - 66.2 °F 88% 29.80 in 1.0 mi Calm Calm - N/A   Mist
5:30 AM 69.8 °F - 66.2 °F 88% 29.80 in 2.0 mi Calm Calm - N/A   Scattered Clouds
5:37 AM 68.0 °F - 66.2 °F 94% 29.80 in 5.0 mi Calm Calm - N/A   Scattered Clouds
5:50 AM 68.0 °F - 66.2 °F 94% 29.80 in 5.0 mi Calm Calm - N/A   Mostly Cloudy
5:54 AM 69.1 °F - 66.0 °F 90% 29.78 in 1.5 mi Calm Calm - N/A   Mostly Cloudy
6:02 AM 68.0 °F - 66.2 °F 94% 29.81 in 0.5 mi Calm Calm - N/A Fog Fog
6:16 AM 68.0 °F - 66.2 °F 94% 29.82 in 0.2 mi NNE 3.5 mph - N/A Fog Fog
6:36 AM 69.8 °F - 68.0 °F 94% 29.82 in 0.2 mi NNE 3.5 mph - N/A Fog Fog
6:54 AM 70.0 °F - 69.1 °F 97% 29.81 in 0.2 mi Calm Calm - N/A Fog Fog
7:54 AM 72.0 °F - 70.0 °F 93% 29.83 in 0.2 mi West 5.8 mph - N/A Fog Fog
8:27 AM 73.4 °F - 71.6 °F 94% 29.83 in 0.8 mi West 5.8 mph - N/A   Mist
8:34 AM 73.4 °F - 71.6 °F 94% 29.82 in 1.5 mi WNW 5.8 mph - N/A   Overcast
8:41 AM 73.4 °F - 71.6 °F 94% 29.82 in 3.0 mi West 4.6 mph - N/A   Overcast
8:54 AM 73.9 °F - 72.0 °F 93% 29.81 in 4.0 mi WNW 8.1 mph - N/A   Mostly Cloudy
9:09 AM 75.2 °F - 71.6 °F 89% 29.82 in 5.0 mi WNW 11.5 mph - N/A   Mostly Cloudy
9:39 AM 78.8 °F - 71.6 °F 78% 29.80 in 7.0 mi WNW 4.6 mph - N/A   Scattered Clouds
9:54 AM 79.0 °F - 71.1 °F 77% 29.79 in 8.0 mi WSW 6.9 mph - N/A   Partly Cloudy
10:54 AM 81.0 °F 84.9 °F 71.1 °F 72% 29.81 in 10.0 mi West 10.4 mph - N/A   Scattered Clouds
11:54 AM 84.0 °F 87.8 °F 69.1 °F 61% 29.83 in 10.0 mi NW 12.7 mph - N/A   Partly Cloudy
12:54 PM 86.0 °F 86.8 °F 63.0 °F 46% 29.82 in 10.0 mi WNW 12.7 mph - N/A   Clear
1:54 PM 87.1 °F 87.8 °F 63.0 °F 44% 29.81 in 10.0 mi WNW 8.1 mph - N/A   Clear
2:54 PM 89.1 °F 89.0 °F 61.0 °F 39% 29.79 in 10.0 mi NW 11.5 mph - N/A   Clear
3:54 PM 90.0 °F 90.0 °F 61.0 °F 38% 29.78 in 10.0 mi WNW 6.9 mph - N/A   Partly Cloudy
4:54 PM 88.0 °F 88.4 °F 62.1 °F 42% 29.79 in 10.0 mi NW 13.8 mph - N/A   Mostly Cloudy
5:54 PM 87.1 °F 87.8 °F 63.0 °F 44% 29.79 in 10.0 mi WNW 10.4 mph - N/A   Clear
6:54 PM 84.0 °F 85.4 °F 64.0 °F 51% 29.79 in 10.0 mi NW 8.1 mph - N/A   Partly Cloudy
7:54 PM 79.0 °F - 64.9 °F 62% 29.81 in 10.0 mi NW 5.8 mph - N/A   Clear
8:54 PM 77.0 °F - 64.0 °F 64% 29.83 in 10.0 mi NNW 8.1 mph - N/A   Clear
9:54 PM 72.0 °F - 61.0 °F 68% 29.85 in 10.0 mi NNW 8.1 mph - N/A   Clear
10:54 PM 71.1 °F - 57.0 °F 61% 29.87 in 10.0 mi NNW 6.9 mph - N/A   Clear
11:54 PM 68.0 °F - 57.9 °F 70% 29.88 in 10.0 mi NNW 5.8 mph - N/A   Clear